Location: Fort Worth, Tx
(32.7431°N, 97.3695°W)
Time: 11:21:35
(UTC-04:00)

Courier 1B - Pass Details

Date: 23 February 2024
Orbit: 962 x 1208 km, 28.3° (Epoch: 24 April)

Event Time Altitude Azimuth Distance (km) Brightness Sun altitude
Exits shadow 04:32:54 18° 105° (ESE) 2,275 9.8 -44.8°
Drops below altitude 10° 04:34:27 10° 102° (ESE) 2,804 10.3 -44.5°
Sets 04:37:15 0° 99° (E) 3,792 11.2 -43.9°
